This is the latest recevied weather packets stored in our database for station/object WB9YJT. If no packets are shown the sender has not sent any weather packets the latest 1 day(s).
| Time | Temp. | Humidity | Pressure | Rain* | Wind** | Luminosity | Snow |
|---|---|---|---|---|---|---|---|
| 1778100046 | 13.89° C | 38% | - | 0 mm | - | - | - |
| 1778097015 | 12.78° C | 36% | - | 0 mm | - | - | - |
| 1778096409 | 13.33° C | 34% | - | 0 mm | - | - | - |
| 1778095500 | 13.33° C | 34% | - | 0 mm | - | - | - |
| 1778094893 | 13.89° C | 37% | - | 0 mm | - | - | - |
| 1778093680 | 12.22° C | 37% | - | 0 mm | - | - | - |
| 1778093377 | 12.22° C | 37% | - | 0 mm | - | - | - |
| 1778092164 | 11.67° C | 39% | - | 0 mm | - | - | - |
| 1778091861 | 11.67° C | 39% | - | 0 mm | - | - | - |
| 1778090649 | 11.67° C | 39% | - | 0 mm | - | - | - |
| 1778090346 | 11.67° C | 41% | - | 0 mm | - | - | - |
| 1778088528 | 12.22° C | 39% | - | 0 mm | - | - | - |
| 1778087922 | 12.22° C | 39% | - | 0 mm | - | - | - |
| 1778087619 | 12.22° C | 40% | - | 0 mm | - | - | - |
| 1778087012 | 11.67° C | 39% | - | 0 mm | - | - | - |
| 1778085494 | 11.67° C | 41% | - | 0 mm | - | - | - |
| 1778082766 | 11.11° C | 39% | - | 0 mm | - | - | - |
| 1778079518 | 10.56° C | 45% | - | 0 mm | - | - | - |
| 1778076190 | 11.11° C | 44% | - | 0 mm | - | - | - |
| 1778075583 | 10° C | 44% | - | 0 mm | - | - | - |
| 1778075280 | 10.56° C | 48% | - | 0 mm | - | - | - |
| 1778074067 | 9.44° C | 50% | - | 0 mm | - | - | - |
| 1778073159 | 8.89° C | 49% | - | 0 mm | - | - | - |
| 1778072855 | 8.89° C | 51% | - | 0 mm | - | - | - |
| 1778072552 | 8.89° C | 54% | - | 0 mm | - | - | - |
* Rain latest hour (hover to see other rain measurements)
** Current wind speed in m/s (hover to see current wind gust speed)